This demonstration page uses our WeatherBlox Daily Observations layout. Learn more.

Left ArrowRight Arrow

Hourly Observations for September 5, 2016

Temp ( °F °C ) Dew Point ( °F °C ) Humidity (%) Winds ( mph kmh ) Pressure ( in mb ) Visibility ( mi km ) Precip ( " mm )
12:51 am 00:51 Clear 74 23.3 24 -4.4 15 15 ENE 6 9 29.63 1004 10 16.0934 0 0
1:51 am 01:51 Clear 70 21.1 29 -1.7 22 22 ESE 6 9 29.63 1004 10 16.0934 0 0
2:51 am 02:51 Clear 68 20 29 -1.7 23 23 ESE 5 7 29.64 1004 10 16.0934 0 0
3:51 am 03:51 Clear 65 18.3 28 -2.2 25 25 ESE 3 6 29.65 1004 10 16.0934 0 0
4:51 am 04:51 Clear 62 16.7 26 -3.3 25 25 ESE 3 6 29.67 1005 10 16.0934 0 0
5:51 am 05:51 Clear 61 16.1 29 -1.7 30 30 Calm 29.68 1005 10 16.0934 0 0
6:51 am 06:51 Sunny 68 20 31 -0.6 25 25 Calm 29.7 1006 10 16.0934 0 0
7:51 am 07:51 Sunny 78 25.6 29 -1.7 16 16 Calm 29.69 1005 10 16.0934 0 0
8:51 am 08:51 Sunny 86 30 32 0 14 14 ESE 8 13 29.68 1005 10 16.0934 0 0
9:51 am 09:51 Sunny 90 32.2 35 1.7 14 14 ESE 10 17 29.68 1005 10 16.0934 0 0
10:51 am 10:51 Sunny 94 34.4 34 1.1 12 12 ESE 9 15 29.66 1005 10 16.0934 0 0
11:51 am 11:51 Sunny 96 35.6 37 2.8 13 13 SE 8 13 29.64 1004 10 16.0934 0 0
12:51 pm 12:51 Sunny 100 37.8 39 3.9 12 12 SSE 10 17 29.61 1003 10 16.0934 0 0
1:51 pm 13:51 Sunny 102 38.9 40 4.4 12 12 S 20 31 29.59 1002 10 16.0934 0 0
2:51 pm 14:51 Sunny 102 38.9 40 4.4 12 12 S 17 28 29.57 1001 10 16.0934 0 0
3:51 pm 15:51 Sunny 103 39.4 40 4.4 11 11 WSW 13 20 29.56 1001 10 16.0934 0 0
4:51 pm 16:51 Sunny 101 38.3 40 4.4 12 12 NW 9 15 29.55 1001 10 16.0934 0 0
5:51 pm 17:51 Sunny 100 37.8 41 5 13 13 WSW 13 20 29.55 1001 10 16.0934 0 0
6:51 pm 18:51 Clear 96 35.6 39 3.9 14 14 WNW 12 19 29.56 1001 10 16.0934 0 0
7:51 pm 19:51 Clear 91 32.8 37 2.8 15 15 WNW 12 19 29.58 1002 10 16.0934 0 0
8:51 pm 20:51 Clear 89 31.7 33 0.6 14 14 NW 13 20 29.6 1002 10 16.0934 0 0
9:51 pm 21:51 Clear 86 30 32 0 14 14 NW 12 19 29.61 1003 10 16.0934 0 0
10:51 pm 22:51 Clear 84 28.9 31 -0.6 15 15 NNW 6 9 29.64 1004 10 16.0934 0 0
11:51 pm 23:51 Clear 80 26.7 31 -0.6 17 17 NW 7 11 29.67 1005 10 16.0934 0 0

Powered by AerisWeather